Change the Weather History Date:

Sunday, April 6, 2014

  Actual Average (KISN) Record (KISN)
Temperature  
Mean Temperature 42 °F 39 °F  
Max Temperature 55 °F 53 °F 78 °F (1910)
Min Temperature 30 °F 26 °F 1 °F (1936)
Degree Days  
Heating Degree Days 22 26  
Month to date heating degree days 161  
Since 1 July heating degree days 8036  
Cooling Degree Days 0 0  
Month to date cooling degree days 0  
Year to date cooling degree days 0  
Moisture  
Dew Point 29 °F    
Average Humidity 69    
Maximum Humidity 100    
Minimum Humidity 31    
Precipitation  
Precipitation 0.00 in 0.03 in 1.30 in (1895)
Month to date precipitation 0.16  
Year to date precipitation 1.85  
Sea Level Pressure  
Sea Level Pressure 29.75 in    
Wind  
Wind Speed 6 mph (WSW)    
Max Wind Speed 17 mph    
Max Gust Speed 24 mph    
Visibility 10 miles    
Events      
T = Trace of Precipitation, MM = Missing Value Source: NWS Daily Summary

Daily Weather History Graph

Daily Weather History Graph

Search for Another Location

Airport or City:

Trip Planner

Search our weather history database for the weather conditions in past years. The results will help you decide how hot, cold, wet, or windy it might be!

Date:

Astronomy

Apr. 06, 2014 Rise Set
Actual Time 7:21 AM CDT 8:30 PM CDT
Civil Twilight 6:49 AM CDT 9:02 PM CDT
Nautical Twilight 6:11 AM CDT 9:40 PM CDT
Astronomical Twilight 5:31 AM CDT 10:21 PM CDT
Moon 12:10 PM CDT (4/6) 2:42 AM CDT (4/6)
Length of Visible Light 14h 12m
Length of Day
13h 08m
Waxing Crescent, 44% of the Moon is Illuminated
Apr 6
Waxing Crescent
Apr 7
First Quarter
Apr 15
Full
Apr 22
Last Quarter
Apr 29
New

Hourly Weather History & Observations

Time (CDT) Temp. Windchill Dew Point Humidity Pressure Visibility Wind Dir Wind Speed Gust Speed Precip Events Conditions
12:15 AM 32.0 °F 28.7 °F 30.2 °F 93% 29.78 in 10.0 mi East 3.5 mph - N/A   Clear
12:35 AM 32.0 °F - 28.4 °F 87% 29.78 in 10.0 mi Calm Calm - N/A   Clear
12:55 AM 32.0 °F - 30.2 °F 93% 29.78 in 10.0 mi Calm Calm - N/A   Clear
1:15 AM 30.2 °F 24.3 °F 28.4 °F 93% 29.77 in 10.0 mi SE 5.8 mph - N/A   Clear
1:35 AM 32.0 °F 28.7 °F 30.2 °F 93% 29.77 in 10.0 mi SE 3.5 mph - N/A   Scattered Clouds
1:55 AM 30.2 °F - 28.4 °F 93% 29.77 in 10.0 mi Calm Calm - N/A   Overcast
2:15 AM 32.0 °F - 30.2 °F 93% 29.77 in 10.0 mi Calm Calm - N/A   Overcast
2:35 AM 32.0 °F - 30.2 °F 93% 29.76 in 10.0 mi Calm Calm - N/A   Mostly Cloudy
2:55 AM 32.0 °F 26.4 °F 32.0 °F 100% 29.76 in 10.0 mi SW 5.8 mph - N/A   Overcast
3:15 AM 32.0 °F 27.5 °F 32.0 °F 100% 29.75 in 10.0 mi SSW 4.6 mph - N/A   Mostly Cloudy
3:35 AM 32.0 °F 26.4 °F 32.0 °F 100% 29.76 in 10.0 mi SW 5.8 mph - N/A   Mostly Cloudy
3:55 AM 32.0 °F 25.6 °F 32.0 °F 100% 29.75 in 10.0 mi SSW 6.9 mph - N/A   Partly Cloudy
4:15 AM 32.0 °F 26.4 °F 32.0 °F 100% 29.75 in 10.0 mi SW 5.8 mph - N/A   Mostly Cloudy
4:35 AM 32.0 °F 26.4 °F 30.2 °F 93% 29.74 in 10.0 mi WSW 5.8 mph - N/A   Mostly Cloudy
4:55 AM 32.0 °F 23.6 °F 30.2 °F 93% 29.74 in 10.0 mi SW 10.4 mph - N/A   Mostly Cloudy
5:15 AM 32.0 °F 24.8 °F 28.4 °F 87% 29.74 in 10.0 mi SW 8.1 mph - N/A   Partly Cloudy
5:35 AM 32.0 °F 24.8 °F 28.4 °F 87% 29.74 in 10.0 mi SW 8.1 mph - N/A   Clear
5:55 AM 30.2 °F 23.4 °F 28.4 °F 93% 29.74 in 10.0 mi SW 6.9 mph - N/A   Clear
6:15 AM 30.2 °F 22.6 °F 28.4 °F 93% 29.74 in 10.0 mi WSW 8.1 mph - N/A   Clear
6:35 AM 30.2 °F 22.6 °F 28.4 °F 93% 29.74 in 10.0 mi SW 8.1 mph - N/A   Scattered Clouds
6:55 AM 30.2 °F 22.6 °F 28.4 °F 93% 29.74 in 10.0 mi SW 8.1 mph - N/A   Scattered Clouds
7:15 AM 30.2 °F 22.6 °F 28.4 °F 93% 29.74 in 10.0 mi SW 8.1 mph - N/A   Scattered Clouds
7:35 AM 30.2 °F 22.6 °F 28.4 °F 93% 29.74 in 10.0 mi SW 8.1 mph - N/A   Partly Cloudy
7:55 AM 30.2 °F 21.3 °F 28.4 °F 93% 29.75 in 10.0 mi SW 10.4 mph - N/A   Mostly Cloudy
8:15 AM 32.0 °F 25.6 °F 28.4 °F 87% 29.75 in 10.0 mi SW 6.9 mph - N/A   Scattered Clouds
8:35 AM 33.8 °F 27.7 °F 28.4 °F 81% 29.75 in 10.0 mi SW 6.9 mph - N/A   Partly Cloudy
8:55 AM 35.6 °F 28.6 °F 30.2 °F 81% 29.75 in 10.0 mi SW 9.2 mph - N/A   Mostly Cloudy
9:15 AM 35.6 °F 28.0 °F 30.2 °F 81% 29.75 in 10.0 mi SW 10.4 mph - N/A   Mostly Cloudy
9:35 AM 37.4 °F 30.8 °F 32.0 °F 81% 29.75 in 10.0 mi SW 9.2 mph - N/A   Mostly Cloudy
9:55 AM 39.2 °F 33.0 °F 32.0 °F 75% 29.74 in 10.0 mi SW 9.2 mph - N/A   Partly Cloudy
10:15 AM 42.8 °F 38.0 °F 32.0 °F 66% 29.74 in 10.0 mi WSW 8.1 mph - N/A   Partly Cloudy
10:35 AM 44.6 °F 40.7 °F 32.0 °F 61% 29.74 in 10.0 mi SW 6.9 mph - N/A   Partly Cloudy
10:55 AM 48.2 °F - 28.4 °F 46% 29.74 in 10.0 mi West 11.5 mph 19.6 mph N/A   Partly Cloudy
11:15 AM 46.4 °F 40.4 °F 28.4 °F 50% 29.74 in 10.0 mi WSW 13.8 mph 18.4 mph N/A   Scattered Clouds
11:35 AM 48.2 °F - 28.4 °F 46% 29.74 in 10.0 mi West 10.4 mph 16.1 mph N/A   Scattered Clouds
11:55 AM 48.2 °F - 28.4 °F 46% 29.74 in 10.0 mi WSW 11.5 mph - N/A   Mostly Cloudy
12:15 PM 50.0 °F - 28.4 °F 43% 29.73 in 10.0 mi West 11.5 mph 18.4 mph N/A   Partly Cloudy
12:35 PM 51.8 °F - 28.4 °F 41% 29.73 in 10.0 mi WSW 16.1 mph 20.7 mph N/A   Partly Cloudy
12:55 PM 50.0 °F - 28.4 °F 43% 29.73 in 10.0 mi West 10.4 mph 20.7 mph N/A   Scattered Clouds
1:15 PM 51.8 °F - 28.4 °F 41% 29.73 in 10.0 mi West 11.5 mph - N/A   Mostly Cloudy
1:35 PM 51.8 °F - 28.4 °F 41% 29.73 in 10.0 mi West 13.8 mph 21.9 mph N/A   Partly Cloudy
1:55 PM 53.6 °F - 28.4 °F 38% 29.72 in 10.0 mi WNW 15.0 mph 19.6 mph N/A   Clear
2:15 PM 53.6 °F - 26.6 °F 35% 29.72 in 10.0 mi West 13.8 mph 18.4 mph N/A   Scattered Clouds
2:35 PM 53.6 °F - 28.4 °F 38% 29.72 in 10.0 mi WNW 15.0 mph 20.7 mph N/A   Partly Cloudy
2:55 PM 55.4 °F - 28.4 °F 36% 29.72 in 10.0 mi WNW 9.2 mph - N/A   Partly Cloudy
3:15 PM 53.6 °F - 26.6 °F 35% 29.72 in 10.0 mi WNW 9.2 mph - N/A   Partly Cloudy
3:35 PM 53.6 °F - 26.6 °F 35% 29.72 in 10.0 mi West 8.1 mph - N/A   Mostly Cloudy
3:55 PM 55.4 °F - 26.6 °F 33% 29.71 in 10.0 mi WNW 12.7 mph 16.1 mph N/A   Mostly Cloudy
4:15 PM 55.4 °F - 26.6 °F 33% 29.71 in 10.0 mi NNW 10.4 mph - N/A   Mostly Cloudy
4:35 PM 55.4 °F - 26.6 °F 33% 29.71 in 10.0 mi NW 10.4 mph - N/A   Partly Cloudy
4:55 PM 55.4 °F - 24.8 °F 31% 29.71 in 10.0 mi WNW 10.4 mph - N/A   Partly Cloudy
5:15 PM 53.6 °F - 28.4 °F 38% 29.71 in 10.0 mi WSW 12.7 mph 16.1 mph N/A   Scattered Clouds
5:35 PM 51.8 °F - 28.4 °F 41% 29.72 in 10.0 mi West 17.3 mph 24.2 mph N/A   Scattered Clouds
5:55 PM 53.6 °F - 28.4 °F 38% 29.72 in 10.0 mi WNW 9.2 mph - N/A   Clear
6:15 PM 55.4 °F - 28.4 °F 36% 29.73 in 10.0 mi North 15.0 mph 19.6 mph N/A   Mostly Cloudy
6:35 PM 50.0 °F - 32.0 °F 50% 29.74 in 10.0 mi East 8.1 mph - N/A   Scattered Clouds
6:55 PM 51.8 °F - 30.2 °F 44% 29.75 in 10.0 mi North 9.2 mph - N/A   Partly Cloudy
7:15 PM 51.8 °F - 26.6 °F 38% 29.74 in 10.0 mi NNE 10.4 mph - N/A   Partly Cloudy
7:35 PM 50.0 °F - 28.4 °F 43% 29.75 in 10.0 mi NNE 6.9 mph - N/A   Partly Cloudy
7:55 PM 46.4 °F 44.3 °F 28.4 °F 50% 29.76 in 10.0 mi NE 4.6 mph - N/A   Clear
8:15 PM 44.6 °F 42.2 °F 28.4 °F 53% 29.77 in 10.0 mi NE 4.6 mph - N/A   Clear
8:35 PM 39.2 °F - 28.4 °F 65% 29.77 in 10.0 mi Calm Calm - N/A   Clear
8:55 PM 37.4 °F 32.1 °F 28.4 °F 70% 29.78 in 10.0 mi ENE 6.9 mph - N/A   Clear
9:15 PM 35.6 °F - 30.2 °F 81% 29.80 in 10.0 mi Calm Calm - N/A   Clear
9:35 PM 35.6 °F - 28.4 °F 75% 29.81 in 10.0 mi Calm Calm - N/A   Clear
9:55 PM 35.6 °F - 30.2 °F 81% 29.82 in 10.0 mi Calm Calm - N/A   Clear
10:15 PM 33.8 °F - 30.2 °F 87% 29.82 in 10.0 mi Calm Calm - N/A   Clear
10:35 PM 32.0 °F - 28.4 °F 87% 29.83 in 10.0 mi Calm Calm - N/A   Clear
10:55 PM 33.8 °F - 30.2 °F 87% 29.83 in 10.0 mi Calm Calm - N/A   Clear
11:15 PM 32.0 °F - 28.4 °F 87% 29.84 in 10.0 mi Calm Calm - N/A   Clear
11:35 PM 30.2 °F - 28.4 °F 93% 29.84 in 10.0 mi Calm Calm - N/A   Clear
11:55 PM 32.0 °F - 28.4 °F 87% 29.84 in 10.0 mi Calm Calm - N/A   Clear